Regional Weather Roundup
Issued by NWS

Home | Current Version | Previous Version | Graphics & Text | Print | Product List | Glossary On
Versions: 1 2 3 4 5 6 7 8 9 10 11 12 13 14 15 16 17 18 19 20 21 22 23 24 25 26 27 28 29 30 31 32 33 34 35 36 37 38 39 40 41 42 43 44 45 46 47 48 49 50
000
ASUS43 KOAX 232110
RWRNE

WEATHER ROUNDUP FOR NEBRASKA
NATIONAL WEATHER SERVICE OMAHA NE
400 PM CDT TUE AUG 23 2016

NOTES: SATELLITE DATA IS BEING USED TO AUGMENT CLOUD COVER ABOVE
       12000 FEET.
       "FAIR" INDICATES FEW OR NO CLOUDS BELOW 12,000 FEET WITH NO
       SIGNIFICANT WEATHER AND/OR OBSTRUCTIONS TO VISIBILITY.

  * THESE STATIONS DO NOT REPORT WEATHER SUCH AS RAIN...SNOW OR FOG.

NEZ001>004-019>022-054>056-232200-
NEBRASKA PANHANDLE

CITY           SKY/WX    TMP DP  RH WIND       PRES   REMARKS
SCOTTSBLUFF    SUNNY     88  33  14 N12       29.97S
ALLIANCE       SUNNY     86  35  16 N16       29.95S
CHADRON        SUNNY     87  28  12 NE20G25   29.92S
KIMBALL        SUNNY     82  36  19 N14G21    30.04S
SIDNEY         SUNNY     87  30  13 NW23G29   30.00F
$$

NEZ057>060-069>072-079>082-232200-
SOUTHWEST NEBRASKA

CITY           SKY/WX    TMP DP  RH WIND       PRES   REMARKS
NORTH PLATTE   SUNNY     91  62  37 SE5       29.82F HX  91
IMPERIAL       SUNNY     93  33  12 NW17G24   29.88S
LEXINGTON      SUNNY     88  62  41 S5        29.82F
MCCOOK         SUNNY     89  65  44 S6        29.82F HX  91
OGALLALA       SUNNY     92  26   9 N17G25    29.89S
$$

NEZ005>010-023>029-035>040-094-232200-
NORTH CENTRAL NEBRASKA

CITY           SKY/WX    TMP DP  RH WIND       PRES   REMARKS
VALENTINE      SUNNY     86  48  26 NW15G29   29.84R
AINSWORTH      SUNNY     85  53  32 NW13G22   29.83R
BROKEN BOW     SUNNY     85  67  54 SW9       29.82S
O`NEILL        MOSUNNY   88  64  45 S14       29.80F
ORD            MOSUNNY   86  66  51 S10       29.80S
THEDFORD       SUNNY     88  49  26 NW18G26   29.86R
$$

NEZ041-046>049-061>064-073>077-083>087-232200-
SOUTH CENTRAL NEBRASKA

CITY           SKY/WX    TMP DP  RH WIND       PRES   REMARKS
GRAND ISLAND   PTSUNNY   91  67  44 S17G24    29.81S HX  94
AURORA         PTSUNNY   88  69  53 S15G22    29.81S HX  93
HASTINGS       MOSUNNY   91  66  43 S15G23    29.81S HX  93
HEBRON         MOSUNNY   88  71  56 S17G24    29.82F HX  94
HOLDREGE       SUNNY     91  59  33 S12G18    29.81F HX  90
KEARNEY *      SUNNY     91  66  43 S15G22    29.79S HX  94
YORK           MOSUNNY   86  72  62 S16G24    29.82S HX  92
$$

NEZ011>018-030>034-042>045-232200-
NORTHEAST NEBRASKA

CITY           SKY/WX    TMP DP  RH WIND       PRES   REMARKS
NORFOLK        PTSUNNY   84  71  65 S15G25    29.80F
ALBION         PTSUNNY   85  71  61 S10       29.81S HX  90
BLAIR          CLOUDY    83  74  74 SE16G24   29.84F
FREMONT        PTSUNNY   84  72  67 SE17G25   29.83S HX  90
TEKAMAH        CLOUDY    81  71  71 SE16G24   29.83S
WAYNE          PTSUNNY   82  75  79 S18       29.80F
$$

NEZ050>053-065>068-078-088>093-232200-
SOUTHEAST NEBRASKA

CITY           SKY/WX    TMP DP  RH WIND       PRES   REMARKS
LINCOLN        PTSUNNY   89  72  56 S23G30    29.82F HX  96
OMAHA EPPLEY   CLOUDY    84  72  67 S22G30    29.85F
BEATRICE       PTSUNNY   88  72  57 S18       29.84S HX  95
FALLS CITY     CLOUDY    86  74  67 S14G24    29.88F HX  94
NEBRASKA CITY  MOSUNNY   85  74  70 S17G24    29.87F HX  92
PLATTSMOUTH    CLOUDY    83  74  73 SE17G25   29.86F
$$

NEZ044-045-051>053-067-232200-
OMAHA AREA

CITY           SKY/WX    TMP DP  RH WIND       PRES   REMARKS
OMAHA EPPLEY   CLOUDY    84  72  67 S22G30    29.85F
BLAIR          CLOUDY    83  74  74 SE16G24   29.84F
FREMONT        PTSUNNY   84  72  67 SE17G25   29.83S HX  90
MILLARD        CLOUDY    84  74  71 SE17      29.84F HX  91
OFFUTT AFB     CLOUDY    85  74  70 SE18G30   29.84F HX  92
PLATTSMOUTH    CLOUDY    83  74  73 SE17G25   29.86F
WAHOO          MOCLDY    85  73  66 S18G25    29.82F HX  92
$$



USA.gov is the U.S. government's official web portal to all federal, state and local government web resources and services.